sat.trackr.live / text

‹ back to catalog

GAOFEN-11 02

NORAD 46396 · 2020-064A

PAYLOAD ACTIVE UNKNOWN

§ Identity

Operator
Country
PRC
Launch date
2020-09-07
Launch site
TAISC
Launch vehicle
Mass (kg)
RCS (m²)

External: N2YO · Heavens-Above · Gunter

§ Orbital elements

Epoch: 2026-09-20T05:39:23.172768Z

Period
94.50 min
Inclination
97.5253°
Eccentricity
0.0018195
Mean motion
15.23811613 rev/d
Perigee alt
481.9 km
Apogee alt
506.9 km
Semi-major
6,872.5 km
B*
1.6272e-4
RAAN
29.4331°
Arg perigee
324.2884°
Mean anomaly
35.7135°
Rev number
33,600

§ Raw data

GAOFEN-11 021 46396U 20064A   26263.23568487  .00003862  00000+0  16272-3 0  99912 46396  97.5253  29.4331 0018195 324.2884  35.7135 15.23811613336005

JSON: /api/v1/satellites/46396 · /tle

For live sub-satellite position, see the globe view (requires WebGL).

§ Visibility from observer

Set your observer location to see the next 7 days of passes ≥ 10°. The values pass through the URL so the page stays shareable.

No JS? Fill the form by hand. The geolocation button needs JavaScript.